| time (UTC) | temp C | wind direction | speed KPH | gust KPH | rain 1hr cm | rain 24hr cm | rain mn cm | humidity % | barometer mb |
| 20260906124003 | 20 | 30 | 1.6 | 6.4 | 0.00 | 0.00 | 0.00 | 93 | 1019.6 |
| 20260906123504 | 20 | 33 | 1.6 | 6.4 | 0.00 | 0.00 | 0.00 | 94 | 1019.6 |
| 20260906123004 | 20 | 35 | 0.0 | 6.4 | 0.00 | 0.00 | 0.00 | 93 | 1019.6 |
| 20260906122504 | 20 | 34 | 0.0 | 6.4 | 0.00 | 0.00 | 0.00 | 93 | 1019.6 |
| 20260906121505 | 20 | 34 | 1.6 | 4.8 | 0.00 | 0.00 | 0.00 | 93 | 1019.3 |
| 20260906121004 | 20 | 34 | 1.6 | 4.8 | 0.00 | 0.00 | 0.00 | 93 | 1019.3 |
| 20260906120504 | 20 | 34 | 1.6 | 6.4 | 0.00 | 0.00 | 0.00 | 93 | 1019.2 |
| 20260906120004 | 20 | 34 | 1.6 | 6.4 | 0.00 | 0.00 | 0.00 | 93 | 1019.1 |
| 20260906115504 | 20 | 32 | 1.6 | 4.8 | 0.00 | 0.00 | 0.00 | 92 | 1019.0 |
| 20260906115004 | 20 | 31 | 1.6 | 4.8 | 0.00 | 0.00 | 0.00 | 92 | 1018.9 |
| 20260906114504 | 20 | 31 | 1.6 | 4.8 | 0.00 | 0.00 | 0.00 | 92 | 1018.8 |
| 20260906114004 | 20 | 32 | 1.6 | 6.4 | 0.00 | 0.00 | 0.00 | 92 | 1018.8 |
| 20260906113504 | 20 | 33 | 0.0 | 6.4 | 0.00 | 0.00 | 0.00 | 92 | 1018.7 |
| 20260906113004 | 20 | 32 | 0.0 | 4.8 | 0.00 | 0.00 | 0.00 | 92 | 1018.5 |
| 20260906112504 | 20 | 32 | 0.0 | 4.8 | 0.00 | 0.00 | 0.00 | 92 | 1018.5 |
| 20260906111503 | 20 | 31 | 0.0 | 4.8 | 0.00 | 0.00 | 0.00 | 92 | 1018.5 |
| 20260906111004 | 20 | 31 | 1.6 | 4.8 | 0.00 | 0.00 | 0.00 | 92 | 1018.3 |
| 20260906110504 | 20 | 30 | 1.6 | 4.8 | 0.00 | 0.00 | 0.00 | 92 | 1018.3 |
| 20260906110004 | 20 | 31 | 0.0 | 4.8 | 0.00 | 0.00 | 0.00 | 92 | 1018.3 |
| 20260906105004 | 20 | 32 | 1.6 | 4.8 | 0.00 | 0.00 | 0.00 | 92 | 1018.0 |
| 20260906104504 | 20 | 31 | 1.6 | 6.4 | 0.00 | 0.00 | 0.00 | 92 | 1018.1 |
| 20260906103503 | 20 | 35 | 1.6 | 6.4 | 0.00 | 0.00 | 0.00 | 92 | 1017.9 |
| 20260906103004 | 20 | 36 | 1.6 | 9.7 | 0.00 | 0.00 | 0.00 | 92 | 1017.9 |
| 20260906102504 | 20 | 33 | 1.6 | 9.7 | 0.00 | 0.00 | 0.00 | 92 | 1017.8 |
| 20260906102004 | 21 | 31 | 1.6 | 8.0 | 0.00 | 0.00 | 0.00 | 92 | 1017.9 |
| 20260906101504 | 21 | 36 | 1.6 | 6.4 | 0.00 | 0.00 | 0.00 | 92 | 1017.9 |
| 20260906101004 | 21 | 34 | 1.6 | 8.0 | 0.00 | 0.00 | 0.00 | 91 | 1017.9 |
| 20260906100504 | 21 | 31 | 0.0 | 8.0 | 0.00 | 0.00 | 0.00 | 91 | 1017.8 |
| 20260906095503 | 21 | 28 | 1.6 | 6.4 | 0.00 | 0.00 | 0.00 | 91 | 1017.8 |
| 20260906095004 | 21 | 28 | 1.6 | 6.4 | 0.00 | 0.00 | 0.00 | 91 | 1017.7 |
| 20260906094504 | 21 | 28 | 1.6 | 6.4 | 0.00 | 0.00 | 0.00 | 91 | 1017.6 |
| 20260906094003 | 21 | 27 | 1.6 | 6.4 | 0.00 | 0.00 | 0.00 | 91 | 1017.7 |
| 20260906093504 | 21 | 26 | 1.6 | 4.8 | 0.00 | 0.00 | 0.00 | 91 | 1017.7 |
| 20260906093004 | 21 | 26 | 1.6 | 4.8 | 0.00 | 0.00 | 0.00 | 91 | 1017.6 |
| 20260906092504 | 21 | 26 | 1.6 | 4.8 | 0.00 | 0.00 | 0.00 | 91 | 1017.7 |
| 20260906092004 | 21 | 26 | 1.6 | 4.8 | 0.00 | 0.00 | 0.00 | 90 | 1017.7 |
| 20260906091504 | 21 | 27 | 1.6 | 6.4 | 0.00 | 0.00 | 0.00 | 90 | 1017.6 |
| 20260906091004 | 21 | 35 | 1.6 | 8.0 | 0.00 | 0.00 | 0.00 | 90 | 1017.6 |
| 20260906090504 | 21 | 34 | 1.6 | 8.0 | 0.00 | 0.00 | 0.00 | 90 | 1017.5 |
| 20260906085504 | 21 | 29 | 1.6 | 8.0 | 0.00 | 0.00 | 0.00 | 90 | 1017.5 |
| 20260906085004 | 21 | 29 | 1.6 | 8.0 | 0.00 | 0.00 | 0.00 | 90 | 1017.6 |
| 20260906084504 | 21 | 29 | 1.6 | 9.7 | 0.00 | 0.00 | 0.00 | 90 | 1017.5 |
| 20260906084004 | 21 | 33 | 1.6 | 9.7 | 0.00 | 0.00 | 0.00 | 89 | 1017.5 |
| 20260906083504 | 21 | 35 | 0.0 | 4.8 | 0.00 | 0.00 | 0.00 | 89 | 1017.4 |
| 20260906082504 | 21 | 36 | 0.0 | 4.8 | 0.00 | 0.00 | 0.00 | 89 | 1017.4 |
| 20260906082004 | 21 | 36 | 1.6 | 4.8 | 0.00 | 0.00 | 0.00 | 89 | 1017.5 |
| 20260906081504 | 21 | 35 | 1.6 | 6.4 | 0.00 | 0.00 | 0.00 | 89 | 1017.6 |
| 20260906081004 | 21 | 35 | 1.6 | 6.4 | 0.00 | 0.00 | 0.00 | 89 | 1017.6 |
| 20260906080504 | 21 | 34 | 1.6 | 6.4 | 0.00 | 0.00 | 0.00 | 88 | 1017.6 |
| 20260906080004 | 21 | 34 | 1.6 | 6.4 | 0.00 | 0.00 | 0.00 | 88 | 1017.6 |
| 20260906075504 | 21 | 33 | 1.6 | 8.0 | 0.00 | 0.00 | 0.00 | 88 | 1017.7 |
| 20260906074504 | 22 | 32 | 0.0 | 4.8 | 0.00 | 0.00 | 0.00 | 88 | 1017.8 |
| 20260906073504 | 22 | 32 | 1.6 | 6.4 | 0.00 | 0.00 | 0.00 | 88 | 1017.7 |
| 20260906073003 | 22 | 34 | 1.6 | 4.8 | 0.00 | 0.00 | 0.00 | 88 | 1017.7 |
| 20260906072504 | 22 | 36 | 1.6 | 6.4 | 0.00 | 0.00 | 0.00 | 88 | 1017.8 |
| 20260906072003 | 22 | 34 | 1.6 | 6.4 | 0.00 | 0.00 | 0.00 | 88 | 1017.7 |
| 20260906071504 | 22 | 32 | 1.6 | 6.4 | 0.00 | 0.00 | 0.00 | 88 | 1017.7 |
| 20260906071003 | 22 | 32 | 1.6 | 6.4 | 0.00 | 0.00 | 0.00 | 87 | 1017.8 |
| 20260906065504 | 22 | 29 | 1.6 | 6.4 | 0.00 | 0.00 | 0.00 | 88 | 1017.9 |
| 20260906064504 | 22 | 28 | 0.0 | 3.2 | 0.00 | 0.00 | 0.00 | 88 | 1017.9 |
| 20260906064004 | 22 | 28 | 0.0 | 3.2 | 0.00 | 0.00 | 0.00 | 88 | 1017.8 |
| 20260906063503 | 22 | 28 | 0.0 | 3.2 | 0.00 | 0.00 | 0.00 | 88 | 1017.9 |
| 20260906063004 | 22 | 28 | 1.6 | 3.2 | 0.00 | 0.00 | 0.00 | 87 | 1017.9 |
| 20260906062503 | 22 | 33 | 1.6 | 6.4 | 0.00 | 0.00 | 0.00 | 87 | 1017.9 |
| 20260906061503 | 22 | 40 | 1.6 | 9.7 | 0.00 | 0.00 | 0.00 | 87 | 1018.0 |
| 20260906061004 | 22 | 38 | 0.0 | 9.7 | 0.00 | 0.00 | 0.00 | 87 | 1018.0 |
| 20260906060503 | 22 | 44 | 0.0 | 4.8 | 0.00 | 0.00 | 0.00 | 87 | 1018.0 |
| 20260906060004 | 22 | 43 | 1.6 | 6.4 | 0.00 | 0.00 | 0.00 | 87 | 1017.9 |
| 20260906055004 | 22 | 39 | 1.6 | 4.8 | 0.00 | 0.00 | 0.00 | 86 | 1017.8 |
| 20260906054504 | 22 | 39 | 1.6 | 6.4 | 0.00 | 0.00 | 0.00 | 86 | 1017.7 |
| 20260906054004 | 22 | 40 | 0.0 | 6.4 | 0.00 | 0.00 | 0.00 | 86 | 1017.7 |
| 20260906053003 | 22 | 40 | 0.0 | 3.2 | 0.00 | 0.00 | 0.00 | 86 | 1017.7 |
| 20260906052004 | 22 | 35 | 1.6 | 4.8 | 0.00 | 0.00 | 0.00 | 86 | 1017.6 |
| 20260906051504 | 22 | 34 | 1.6 | 6.4 | 0.00 | 0.00 | 0.00 | 86 | 1017.6 |
| 20260906051004 | 23 | 42 | 1.6 | 8.0 | 0.00 | 0.00 | 0.00 | 86 | 1017.5 |
| 20260906050504 | 23 | 45 | 1.6 | 11.3 | 0.00 | 0.00 | 0.00 | 86 | 1017.5 |
| 20260906050005 | 23 | 51 | 1.6 | 11.3 | 0.00 | 0.00 | 0.00 | 85 | 1017.4 |
| 20260906045504 | 23 | 61 | 1.6 | 8.0 | 0.00 | 0.00 | 0.00 | 85 | 1017.5 |
| 20260906044003 | 23 | 42 | 1.6 | 6.4 | 0.00 | 0.00 | 0.00 | 85 | 1017.3 |
| 20260906043504 | 23 | 29 | 1.6 | 4.8 | 0.00 | 0.00 | 0.00 | 85 | 1017.2 |
| 20260906043004 | 23 | 26 | 1.6 | 4.8 | 0.00 | 0.00 | 0.00 | 85 | 1017.2 |
| 20260906042004 | 23 | 51 | 3.2 | 8.0 | 0.00 | 0.00 | 0.00 | 85 | 1017.0 |
| 20260906041003 | 23 | 68 | 3.2 | 12.9 | 0.00 | 0.00 | 0.00 | 85 | 1017.0 |
| 20260906040503 | 23 | 73 | 3.2 | 9.7 | 0.00 | 0.00 | 0.00 | 85 | 1016.9 |
| 20260906040004 | 23 | 78 | 3.2 | 16.1 | 0.00 | 0.00 | 0.00 | 85 | 1016.8 |
| 20260906035503 | 23 | 71 | 3.2 | 16.1 | 0.00 | 0.00 | 0.00 | 85 | 1016.7 |
| 20260906035004 | 23 | 62 | 3.2 | 9.7 | 0.00 | 0.00 | 0.00 | 85 | 1016.7 |
| 20260906034504 | 23 | 72 | 3.2 | 16.1 | 0.00 | 0.00 | 0.00 | 85 | 1016.5 |
| 20260906034004 | 23 | 74 | 4.8 | 16.1 | 0.00 | 0.00 | 0.00 | 85 | 1016.6 |
| 20260906033503 | 23 | 75 | 4.8 | 16.1 | 0.00 | 0.00 | 0.00 | 85 | 1016.7 |
| 20260906033003 | 23 | 75 | 4.8 | 12.9 | 0.00 | 0.00 | 0.00 | 85 | 1016.7 |
| 20260906032504 | 23 | 76 | 4.8 | 12.9 | 0.00 | 0.00 | 0.00 | 85 | 1016.7 |
| 20260906032003 | 23 | 83 | 4.8 | 14.5 | 0.00 | 0.00 | 0.00 | 85 | 1016.7 |
| 20260906031503 | 23 | 76 | 4.8 | 14.5 | 0.00 | 0.00 | 0.00 | 85 | 1016.8 |
| 20260906031004 | 23 | 59 | 4.8 | 16.1 | 0.00 | 0.00 | 0.00 | 84 | 1016.6 |
| 20260906030503 | 23 | 56 | 3.2 | 16.1 | 0.00 | 0.00 | 0.00 | 85 | 1016.6 |
| 20260906030004 | 23 | 57 | 4.8 | 12.9 | 0.00 | 0.00 | 0.00 | 85 | 1016.7 |
| 20260906025504 | 23 | 61 | 4.8 | 17.7 | 0.00 | 0.00 | 0.00 | 84 | 1016.7 |
| 20260906025003 | 22 | 66 | 6.4 | 20.9 | 0.00 | 0.00 | 0.00 | 84 | 1016.7 |
| 20260906024504 | 23 | 67 | 6.4 | 24.1 | 0.00 | 0.00 | 0.00 | 84 | 1016.7 |
| 20260906024003 | 23 | 61 | 6.4 | 24.1 | 0.00 | 0.00 | 0.00 | 84 | 1016.7 |
| 20260906023504 | 23 | 58 | 4.8 | 22.5 | 0.00 | 0.00 | 0.00 | 84 | 1016.6 |
| 20260906023004 | 23 | 56 | 4.8 | 19.3 | 0.00 | 0.00 | 0.00 | 84 | 1016.7 |
| 20260906022503 | 23 | 50 | 6.4 | 17.7 | 0.00 | 0.00 | 0.00 | 84 | 1016.8 |
| 20260906022003 | 23 | 53 | 6.4 | 20.9 | 0.00 | 0.00 | 0.00 | 84 | 1016.8 |
| 20260906021503 | 23 | 54 | 4.8 | 20.9 | 0.00 | 0.00 | 0.00 | 84 | 1016.8 |
| 20260906021004 | 23 | 50 | 4.8 | 17.7 | 0.00 | 0.00 | 0.00 | 85 | 1016.6 |
| 20260906020504 | 23 | 50 | 3.2 | 16.1 | 0.00 | 0.00 | 0.00 | 84 | 1016.7 |
| 20260906020003 | 23 | 57 | 3.2 | 19.3 | 0.00 | 0.00 | 0.00 | 84 | 1016.6 |
| 20260906015504 | 23 | 55 | 3.2 | 19.3 | 0.00 | 0.00 | 0.00 | 84 | 1016.6 |
| 20260906015004 | 23 | 30 | 3.2 | 16.1 | 0.00 | 0.00 | 0.00 | 84 | 1016.6 |
| 20260906014503 | 23 | 28 | 4.8 | 16.1 | 0.00 | 0.00 | 0.00 | 84 | 1016.6 |
| 20260906014004 | 23 | 18 | 6.4 | 25.7 | 0.00 | 0.00 | 0.00 | 83 | 1016.8 |
| 20260906013503 | 23 | 17 | 4.8 | 25.7 | 0.00 | 0.00 | 0.00 | 83 | 1016.6 |
| 20260906013003 | 23 | 20 | 4.8 | 19.3 | 0.00 | 0.00 | 0.00 | 83 | 1016.6 |
| 20260906012504 | 23 | 26 | 4.8 | 16.1 | 0.00 | 0.00 | 0.00 | 83 | 1016.6 |
| 20260906012004 | 23 | 28 | 4.8 | 17.7 | 0.00 | 0.00 | 0.00 | 83 | 1016.5 |
| 20260906010505 | 23 | 32 | 3.2 | 19.3 | 0.00 | 0.00 | 0.00 | 83 | 1016.6 |
| 20260906010004 | 23 | 29 | 3.2 | 19.3 | 0.00 | 0.00 | 0.00 | 82 | 1016.6 |
| 20260906005505 | 23 | 29 | 4.8 | 16.1 | 0.00 | 0.00 | 0.00 | 82 | 1016.5 |
| 20260906005004 | 24 | 28 | 4.8 | 16.1 | 0.00 | 0.00 | 0.00 | 82 | 1016.5 |
| 20260906004504 | 24 | 30 | 3.2 | 17.7 | 0.00 | 0.00 | 0.00 | 81 | 1016.4 |
| 20260906003505 | 25 | 41 | 3.2 | 9.7 | 0.00 | 0.00 | 0.00 | 80 | 1016.3 |
| 20260906003005 | 25 | 35 | 3.2 | 24.1 | 0.00 | 0.00 | 0.00 | 80 | 1016.2 |
| 20260906002505 | 25 | 38 | 3.2 | 24.1 | 0.00 | 0.00 | 0.00 | 80 | 1016.2 |
| 20260906001505 | 25 | 51 | 3.2 | 16.1 | 0.00 | 0.00 | 0.00 | 79 | 1016.0 |
| 20260906001004 | 25 | 54 | 4.8 | 17.7 | 0.00 | 0.00 | 0.00 | 78 | 1015.9 |
| 20260906000505 | 25 | 53 | 4.8 | 17.7 | 0.00 | 0.00 | 0.00 | 78 | 1015.8 |
| 20260906000004 | 26 | 56 | 4.8 | 17.7 | 0.00 | 0.00 | 0.00 | 77 | 1015.6 |
| 20260905235505 | 26 | 59 | 4.8 | 16.1 | 0.00 | 0.00 | 0.00 | 77 | 1015.4 |
| 20260905235004 | 26 | 61 | 4.8 | 16.1 | 0.00 | 0.00 | 0.00 | 77 | 1015.4 |
| 20260905234505 | 26 | 61 | 4.8 | 16.1 | 0.00 | 0.00 | 0.00 | 77 | 1015.4 |
| 20260905234004 | 26 | 69 | 4.8 | 16.1 | 0.00 | 0.00 | 0.00 | 76 | 1015.4 |
| 20260905233505 | 27 | 70 | 3.2 | 16.1 | 0.00 | 0.00 | 0.00 | 76 | 1015.3 |
| 20260905232504 | 27 | 55 | 3.2 | 11.3 | 0.00 | 0.00 | 0.00 | 75 | 1015.4 |
| 20260905232005 | 27 | 68 | 4.8 | 19.3 | 0.00 | 0.00 | 0.00 | 75 | 1015.4 |
| 20260905231005 | 27 | 71 | 3.2 | 16.1 | 0.00 | 0.00 | 0.00 | 74 | 1015.4 |
| 20260905230504 | 27 | 53 | 3.2 | 16.1 | 0.00 | 0.00 | 0.00 | 74 | 1015.1 |
| 20260905230005 | 27 | 26 | 3.2 | 8.0 | 0.00 | 0.00 | 0.00 | 73 | 1015.1 |
| 20260905225505 | 27 | 22 | 3.2 | 11.3 | 0.00 | 0.00 | 0.00 | 72 | 1015.0 |
| 20260905225004 | 27 | 26 | 3.2 | 11.3 | 0.00 | 0.00 | 0.00 | 73 | 1015.1 |
| 20260905224505 | 27 | 40 | 3.2 | 19.3 | 0.00 | 0.00 | 0.00 | 73 | 1015.0 |
| 20260905224004 | 27 | 45 | 3.2 | 19.3 | 0.00 | 0.00 | 0.00 | 73 | 1014.9 |
| 20260905223504 | 27 | 35 | 3.2 | 12.9 | 0.00 | 0.00 | 0.00 | 74 | 1014.8 |
| 20260905222504 | 27 | 12 | 3.2 | 14.5 | 0.00 | 0.00 | 0.00 | 73 | 1015.0 |
| 20260905222005 | 27 | 11 | 3.2 | 14.5 | 0.00 | 0.00 | 0.00 | 73 | 1014.9 |
| 20260905221505 | 27 | 26 | 3.2 | 11.3 | 0.00 | 0.00 | 0.00 | 74 | 1014.9 |
| 20260905220004 | 27 | 43 | 3.2 | 14.5 | 0.00 | 0.00 | 0.00 | 75 | 1014.7 |
| 20260905215005 | 27 | 25 | 3.2 | 9.7 | 0.00 | 0.00 | 0.00 | 76 | 1014.9 |
| 20260905214504 | 27 | 12 | 4.8 | 17.7 | 0.00 | 0.00 | 0.00 | 76 | 1015.0 |
| 20260905213004 | 27 | 23 | 4.8 | 14.5 | 0.00 | 0.00 | 0.00 | 75 | 1015.0 |
| 20260905212004 | 27 | 38 | 4.8 | 14.5 | 0.00 | 0.00 | 0.00 | 76 | 1015.0 |
| 20260905211505 | 27 | 31 | 4.8 | 14.5 | 0.00 | 0.00 | 0.00 | 75 | 1015.0 |
| 20260905210504 | 27 | 44 | 4.8 | 16.1 | 0.00 | 0.00 | 0.00 | 75 | 1015.1 |
| 20260905210005 | 27 | 28 | 4.8 | 16.1 | 0.00 | 0.00 | 0.00 | 75 | 1015.0 |
| 20260905205504 | 27 | 24 | 4.8 | 16.1 | 0.00 | 0.00 | 0.00 | 75 | 1015.1 |
| 20260905205004 | 27 | 32 | 4.8 | 16.1 | 0.00 | 0.00 | 0.00 | 75 | 1015.1 |
| 20260905204504 | 27 | 20 | 4.8 | 14.5 | 0.00 | 0.00 | 0.00 | 76 | 1015.2 |
| 20260905204005 | 27 | 20 | 4.8 | 19.3 | 0.00 | 0.00 | 0.00 | 76 | 1015.3 |
| 20260905202505 | 27 | 17 | 3.2 | 17.7 | 0.00 | 0.00 | 0.00 | 76 | 1015.3 |
| 20260905202004 | 27 | 9 | 4.8 | 12.9 | 0.00 | 0.00 | 0.00 | 76 | 1015.3 |
| 20260905201504 | 28 | 17 | 4.8 | 14.5 | 0.00 | 0.00 | 0.00 | 75 | 1015.2 |
| 20260905201005 | 28 | 24 | 4.8 | 19.3 | 0.00 | 0.00 | 0.00 | 75 | 1015.2 |
| 20260905200504 | 28 | 28 | 4.8 | 19.3 | 0.00 | 0.00 | 0.00 | 76 | 1015.1 |
| 20260905200005 | 28 | 28 | 3.2 | 19.3 | 0.00 | 0.00 | 0.00 | 75 | 1015.2 |
| 20260905195504 | 28 | 17 | 3.2 | 12.9 | 0.00 | 0.00 | 0.00 | 74 | 1015.2 |
| 20260905195004 | 28 | 8 | 4.8 | 12.9 | 0.00 | 0.00 | 0.00 | 74 | 1015.1 |
| 20260905194504 | 28 | 15 | 4.8 | 14.5 | 0.00 | 0.00 | 0.00 | 74 | 1015.0 |
| 20260905194004 | 29 | 22 | 4.8 | 17.7 | 0.00 | 0.00 | 0.00 | 71 | 1015.0 |
| 20260905193505 | 30 | 29 | 4.8 | 17.7 | 0.00 | 0.00 | 0.00 | 71 | 1015.1 |
| 20260905193004 | 29 | 19 | 4.8 | 24.1 | 0.00 | 0.00 | 0.00 | 74 | 1015.0 |
| 20260905192504 | 30 | 15 | 4.8 | 24.1 | 0.00 | 0.00 | 0.00 | 70 | 1015.0 |
| 20260905192005 | 30 | 16 | 4.8 | 14.5 | 0.00 | 0.00 | 0.00 | 74 | 1015.1 |
| 20260905191504 | 29 | 10 | 4.8 | 16.1 | 0.00 | 0.00 | 0.00 | 73 | 1015.1 |
| 20260905190504 | 30 | 22 | 4.8 | 14.5 | 0.00 | 0.00 | 0.00 | 72 | 1015.1 |
| 20260905190004 | 30 | 19 | 4.8 | 14.5 | 0.00 | 0.00 | 0.00 | 72 | 1015.1 |
| 20260905185504 | 30 | 14 | 4.8 | 14.5 | 0.00 | 0.00 | 0.00 | 73 | 1015.1 |
| 20260905185004 | 30 | 24 | 3.2 | 11.3 | 0.00 | 0.00 | 0.00 | 73 | 1015.2 |
| 20260905184004 | 30 | 12 | 4.8 | 9.7 | 0.00 | 0.00 | 0.00 | 72 | 1015.1 |
| 20260905183504 | 30 | 29 | 4.8 | 16.1 | 0.00 | 0.00 | 0.00 | 70 | 1015.1 |
| 20260905183005 | 31 | 45 | 3.2 | 16.1 | 0.00 | 0.00 | 0.00 | 69 | 1015.2 |
| 20260905182505 | 30 | 29 | 3.2 | 9.7 | 0.00 | 0.00 | 0.00 | 71 | 1015.2 |
| 20260905182004 | 30 | 29 | 3.2 | 8.0 | 0.00 | 0.00 | 0.00 | 72 | 1015.2 |
| 20260905181504 | 30 | 52 | 3.2 | 8.0 | 0.00 | 0.00 | 0.00 | 73 | 1015.2 |
| 20260905181004 | 30 | 41 | 3.2 | 12.9 | 0.00 | 0.00 | 0.00 | 72 | 1015.2 |
| 20260905180504 | 30 | 19 | 3.2 | 12.9 | 0.00 | 0.00 | 0.00 | 74 | 1015.3 |
| 20260905180005 | 29 | 31 | 3.2 | 9.7 | 0.00 | 0.00 | 0.00 | 72 | 1015.2 |
| 20260905175504 | 30 | 44 | 3.2 | 9.7 | 0.00 | 0.00 | 0.00 | 70 | 1015.3 |
| 20260905175005 | 30 | 26 | 3.2 | 16.1 | 0.00 | 0.00 | 0.00 | 72 | 1015.2 |
| 20260905174504 | 30 | 26 | 3.2 | 16.1 | 0.00 | 0.00 | 0.00 | 74 | 1015.1 |
| 20260905174004 | 30 | 34 | 3.2 | 8.0 | 0.00 | 0.00 | 0.00 | 73 | 1015.2 |
| 20260905173504 | 30 | 21 | 3.2 | 8.0 | 0.00 | 0.00 | 0.00 | 72 | 1015.2 |
| 20260905173004 | 30 | 12 | 1.6 | 9.7 | 0.00 | 0.00 | 0.00 | 74 | 1015.2 |
| 20260905172505 | 30 | 23 | 3.2 | 9.7 | 0.00 | 0.00 | 0.00 | 73 | 1015.2 |
| 20260905172004 | 30 | 31 | 3.2 | 9.7 | 0.00 | 0.00 | 0.00 | 75 | 1015.3 |
| 20260905171005 | 30 | 13 | 4.8 | 9.7 | 0.00 | 0.00 | 0.00 | 72 | 1015.2 |
| 20260905170504 | 30 | 37 | 4.8 | 12.9 | 0.00 | 0.00 | 0.00 | 74 | 1015.4 |
| 20260905165504 | 30 | 30 | 3.2 | 12.9 | 0.00 | 0.00 | 0.00 | 74 | 1015.4 |
| 20260905165004 | 30 | 19 | 3.2 | 12.9 | 0.00 | 0.00 | 0.00 | 74 | 1015.4 |
| 20260905164004 | 30 | 60 | 3.2 | 12.9 | 0.00 | 0.00 | 0.00 | 74 | 1015.6 |
| 20260905163504 | 30 | 62 | 3.2 | 12.9 | 0.00 | 0.00 | 0.00 | 75 | 1015.6 |
| 20260905163004 | 30 | 73 | 3.2 | 12.9 | 0.00 | 0.00 | 0.00 | 73 | 1015.5 |
| 20260905162005 | 29 | 10 | 3.2 | 8.0 | 0.00 | 0.00 | 0.00 | 77 | 1015.5 |
| 20260905161504 | 29 | 16 | 3.2 | 9.7 | 0.00 | 0.00 | 0.00 | 75 | 1015.5 |
| 20260905161004 | 28 | 28 | 3.2 | 9.7 | 0.00 | 0.00 | 0.00 | 77 | 1015.6 |
| 20260905160004 | 28 | 34 | 3.2 | 8.0 | 0.00 | 0.00 | 0.00 | 77 | 1015.6 |
| 20260905155504 | 28 | 28 | 3.2 | 14.5 | 0.00 | 0.00 | 0.00 | 78 | 1015.6 |
| 20260905155004 | 28 | 12 | 3.2 | 14.5 | 0.00 | 0.00 | 0.00 | 78 | 1015.5 |
| 20260905154504 | 28 | 14 | 4.8 | 12.9 | 0.00 | 0.00 | 0.00 | 79 | 1015.4 |
| 20260905154005 | 28 | 21 | 4.8 | 14.5 | 0.00 | 0.00 | 0.00 | 80 | 1015.4 |
| 20260905153504 | 27 | 17 | 4.8 | 14.5 | 0.00 | 0.00 | 0.00 | 80 | 1015.4 |
| 20260905153004 | 27 | 50 | 4.8 | 17.7 | 0.00 | 0.00 | 0.00 | 80 | 1015.4 |
| 20260905152004 | 27 | 22 | 4.8 | 17.7 | 0.00 | 0.00 | 0.00 | 83 | 1015.4 |
| 20260905151504 | 27 | 29 | 3.2 | 16.1 | 0.00 | 0.00 | 0.00 | 83 | 1015.4 |
| 20260905151005 | 27 | 24 | 3.2 | 12.9 | 0.00 | 0.00 | 0.00 | 83 | 1015.3 |
| 20260905150504 | 26 | 18 | 3.2 | 11.3 | 0.00 | 0.00 | 0.00 | 85 | 1015.2 |
| 20260905150004 | 26 | 35 | 3.2 | 12.9 | 0.00 | 0.00 | 0.00 | 85 | 1015.2 |
| 20260905145504 | 26 | 40 | 3.2 | 12.9 | 0.00 | 0.00 | 0.00 | 85 | 1015.2 |
| 20260905145005 | 26 | 32 | 3.2 | 12.9 | 0.00 | 0.00 | 0.00 | 85 | 1015.0 |
| 20260905144504 | 26 | 32 | 3.2 | 14.5 | 0.00 | 0.00 | 0.00 | 85 | 1015.0 |
| 20260905144005 | 26 | 30 | 3.2 | 14.5 | 0.00 | 0.00 | 0.00 | 85 | 1015.0 |
| 20260905143504 | 26 | 16 | 3.2 | 9.7 | 0.00 | 0.00 | 0.00 | 87 | 1015.0 |
| 20260905143004 | 26 | 26 | 3.2 | 12.9 | 0.00 | 0.00 | 0.00 | 88 | 1015.0 |
| 20260905142504 | 26 | 31 | 3.2 | 16.1 | 0.00 | 0.00 | 0.00 | 88 | 1015.0 |
| 20260905142004 | 26 | 28 | 3.2 | 17.7 | 0.00 | 0.00 | 0.00 | 88 | 1014.9 |
| 20260905141504 | 26 | 34 | 3.2 | 17.7 | 0.00 | 0.00 | 0.00 | 89 | 1014.8 |
| 20260905141004 | 26 | 42 | 3.2 | 9.7 | 0.00 | 0.00 | 0.00 | 90 | 1014.8 |
| 20260905140504 | 26 | 43 | 3.2 | 11.3 | 0.00 | 0.00 | 0.00 | 92 | 1014.7 |
| 20260905135504 | 25 | 29 | 3.2 | 12.9 | 0.00 | 0.00 | 0.00 | 94 | 1014.5 |
| 20260905135004 | 25 | 29 | 3.2 | 12.9 | 0.00 | 0.00 | 0.00 | 94 | 1014.4 |
| 20260905134504 | 25 | 32 | 3.2 | 9.7 | 0.00 | 0.00 | 0.00 | 94 | 1014.5 |
| 20260905134005 | 25 | 39 | 1.6 | 9.7 | 0.00 | 0.00 | 0.00 | 94 | 1014.4 |
| 20260905133504 | 25 | 43 | 1.6 | 4.8 | 0.00 | 0.00 | 0.00 | 94 | 1014.6 |
| 20260905133004 | 25 | 24 | 1.6 | 8.0 | 0.00 | 0.00 | 0.00 | 94 | 1014.6 |
| 20260905132504 | 25 | 9 | 1.6 | 8.0 | 0.00 | 0.00 | 0.00 | 94 | 1014.7 |
| 20260905132004 | 25 | 1 | 1.6 | 8.0 | 0.00 | 0.00 | 0.00 | 94 | 1014.8 |
| 20260905131504 | 25 | 13 | 1.6 | 6.4 | 0.00 | 0.00 | 0.00 | 94 | 1014.9 |
| 20260905131004 | 25 | 17 | 0.0 | 4.8 | 0.00 | 0.00 | 0.00 | 94 | 1014.8 |
| 20260905130504 | 25 | 25 | 1.6 | 4.8 | 0.00 | 0.00 | 0.00 | 94 | 1014.5 |
| 20260905130004 | 25 | 27 | 1.6 | 8.0 | 0.00 | 0.00 | 0.00 | 94 | 1014.3 |
| 20260905125504 | 25 | 32 | 1.6 | 8.0 | 0.00 | 0.00 | 0.00 | 94 | 1014.2 |
| 20260905124504 | 24 | 228 | 0.0 | 6.4 | 0.00 | 0.00 | 0.00 | 95 | 1014.1 |